TimeEDT,TemperatureF,Dew PointF,Humidity,Sea Level PressureIn,VisibilityMPH,Wind Direction,Wind SpeedMPH,Gust SpeedMPH,PrecipitationIn,Events,Conditions,WindDirDegrees,DateUTC
12:15 AM,57.2,55.4,94,30.00,7.0,West,3.5,-,N/A,,Mostly Cloudy,260,2014-05-03 04:15:00
12:35 AM,57.2,55.4,94,29.99,7.0,Calm,Calm,-,N/A,,Scattered Clouds,0,2014-05-03 04:35:00
12:55 AM,55.4,55.4,100,29.98,6.0,Calm,Calm,-,N/A,,Mostly Cloudy,0,2014-05-03 04:55:00
1:15 AM,55.4,55.4,100,29.98,7.0,Calm,Calm,-,N/A,,Mostly Cloudy,0,2014-05-03 05:15:00
1:35 AM,55.4,55.4,100,29.98,6.0,Calm,Calm,-,N/A,,Partly Cloudy,0,2014-05-03 05:35:00
1:55 AM,55.4,55.4,100,29.98,7.0,Calm,Calm,-,N/A,,Scattered Clouds,0,2014-05-03 05:55:00
2:35 AM,57.2,55.4,94,29.98,10.0,WNW,5.8,-,N/A,,Mostly Cloudy,290,2014-05-03 06:35:00
3:15 AM,57.2,57.2,100,30.00,10.0,West,4.6,-,N/A,,Overcast,280,2014-05-03 07:15:00
3:55 AM,57.2,55.4,94,29.98,8.0,Calm,Calm,-,N/A,,Mostly Cloudy,0,2014-05-03 07:55:00
10:35 AM,64.4,50.0,59,30.07,10.0,North,6.9,-,N/A,,Clear,360,2014-05-03 14:35:00
10:55 AM,66.2,48.2,52,30.08,10.0,North,10.4,-,N/A,,Clear,360,2014-05-03 14:55:00
11:15 AM,68.0,48.2,49,30.08,10.0,North,5.8,-,N/A,,Clear,10,2014-05-03 15:15:00
12:35 PM,71.6,42.8,35,30.07,10.0,North,5.8,-,N/A,,Clear,10,2014-05-03 16:35:00
12:55 PM,71.6,41.0,33,30.07,10.0,North,8.1,17.3,N/A,,Clear,10,2014-05-03 16:55:00
1:15 PM,71.6,42.8,35,30.06,10.0,NW,6.9,-,N/A,,Clear,320,2014-05-03 17:15:00
1:35 PM,73.4,44.6,36,30.06,10.0,NNW,10.4,17.3,N/A,,Clear,340,2014-05-03 17:35:00
2:35 PM,75.2,44.6,34,30.05,10.0,North,10.4,-,N/A,,Clear,360,2014-05-03 18:35:00
2:55 PM,75.2,44.6,34,30.05,10.0,NNW,8.1,-,N/A,,Clear,330,2014-05-03 18:55:00
3:15 PM,75.2,44.6,34,30.04,10.0,North,9.2,16.1,N/A,,Clear,350,2014-05-03 19:15:00
3:35 PM,75.2,44.6,34,30.03,10.0,North,6.9,-,N/A,,Clear,350,2014-05-03 19:35:00
4:15 PM,75.2,44.6,34,30.03,10.0,NW,8.1,16.1,N/A,,Clear,320,2014-05-03 20:15:00
4:55 PM,75.2,44.6,34,30.02,10.0,NNW,8.1,-,N/A,,Clear,340,2014-05-03 20:55:00
5:15 PM,75.2,44.6,34,30.02,10.0,NW,10.4,16.1,N/A,,Clear,320,2014-05-03 21:15:00
5:35 PM,75.2,44.6,34,30.02,10.0,NW,8.1,-,N/A,,Clear,310,2014-05-03 21:35:00
5:55 PM,75.2,44.6,34,30.02,10.0,NW,4.6,-,N/A,,Clear,310,2014-05-03 21:55:00
6:15 PM,75.2,44.6,34,30.02,10.0,WNW,4.6,-,N/A,,Clear,290,2014-05-03 22:15:00
6:35 PM,75.2,44.6,34,30.02,10.0,North,6.9,-,N/A,,Clear,350,2014-05-03 22:35:00
6:55 PM,75.2,44.6,34,30.02,10.0,West,5.8,-,N/A,,Clear,280,2014-05-03 22:55:00
7:15 PM,73.4,46.4,38,30.03,10.0,WNW,4.6,-,N/A,,Clear,290,2014-05-03 23:15:00
7:35 PM,71.6,48.2,43,30.03,10.0,Calm,Calm,-,N/A,,Clear,0,2014-05-03 23:35:00
7:55 PM,66.2,50.0,56,30.05,10.0,Calm,Calm,-,N/A,,Clear,0,2014-05-03 23:55:00
8:15 PM,64.4,51.8,64,30.05,10.0,Calm,Calm,-,N/A,,Clear,0,2014-05-04 00:15:00
8:35 PM,62.6,53.6,72,30.06,10.0,Calm,Calm,-,N/A,,Clear,0,2014-05-04 00:35:00
8:55 PM,62.6,53.6,72,30.06,10.0,Calm,Calm,-,N/A,,Clear,0,2014-05-04 00:55:00
9:15 PM,59.0,55.4,88,30.06,10.0,Calm,Calm,-,N/A,,Clear,0,2014-05-04 01:15:00
9:35 PM,59.0,53.6,82,30.07,10.0,Calm,Calm,-,N/A,,Clear,0,2014-05-04 01:35:00
9:55 PM,57.2,53.6,88,30.07,10.0,Calm,Calm,-,N/A,,Clear,0,2014-05-04 01:55:00
10:15 PM,57.2,55.4,94,30.08,10.0,Calm,Calm,-,N/A,,Clear,0,2014-05-04 02:15:00
10:35 PM,57.2,53.6,88,30.09,10.0,Calm,Calm,-,N/A,,Partly Cloudy,0,2014-05-04 02:35:00
10:55 PM,55.4,53.6,94,30.09,10.0,Calm,Calm,-,N/A,,Partly Cloudy,0,2014-05-04 02:55:00
11:15 PM,55.4,53.6,94,30.10,10.0,Calm,Calm,-,N/A,,Clear,0,2014-05-04 03:15:00
11:35 PM,55.4,53.6,94,30.10,10.0,Calm,Calm,-,N/A,,Clear,0,2014-05-04 03:35:00
11:55 PM,55.4,53.6,94,30.10,10.0,Calm,Calm,-,N/A,,Clear,0,2014-05-04 03:55:00